• Join FlightAware (Why Join?)
  • Login
  • US Flag GB Flag 
14:07 EDT


 

Airport Tracker/Info


-or-


 

Live Flight TrackerFlight Track Log ✈ N789EX ✈ 30-Oct-2013 ✈ KMWH - KBFI

Flight Track Log - Related Links

Times and Time Zones

All times are in EDT time to prevent confusion due to time zone crossing. See the N789EX flight status page for this flight to view local times or setup timezone preferences in your user account.

Time Position Orientation Groundspeed Altitude Reporting Facility
EDT Latitude Longitude Course Direction KTS MPH feet Rate Location/Type
16:39 47.0800 -119.6670 209° Southwest 368 423 13,700  Level FlightAware
16:40 47.0320 -119.7070 210° Southwest 372 428 15,300 3,000 Climbing FlightAware
16:40 46.9820 -119.7430 206° Southwest 393 452 16,900 2,880 Climbing FlightAware
16:40 46.9460 -119.7510 189° South 407 468 17,800 2,940 Climbing FlightAware
16:41 46.8450 -119.6800 154° Southeast 439 505 20,800 2,580 Climbing FlightAware
16:42 46.7960 -119.5930 129° Southeast 450 518 22,000 720 Climbing FlightAware
16:43 46.7330 -119.4280 119° Southeast 495 570 22,000 -60 Level FlightAware
16:44 46.6640 -119.2450 119° Southeast 519 597 21,900 -60 Descending FlightAware
16:45 46.6190 -119.1140 117° Southeast 515 593 21,900 60 Level FlightAware
16:46 46.5620 -118.9530 117° Southeast 521 600 22,000 60 Climbing FlightAware
16:46 46.5130 -118.8230 119° Southeast 520 598 22,000 60 Level FlightAware
16:47 46.4760 -118.7240 118° Southeast 525 604 22,100 -120 Climbing FlightAware
16:48 46.3990 -118.5160 118° Southeast 540 621 21,900 -120 Descending FlightAware
16:48 46.3720 -118.4380 117° Southeast 534 615 22,000 60 Climbing FlightAware
16:49 46.3350 -118.3330 117° Southeast 534 615 22,000 -120 Level FlightAware
16:50 46.2770 -118.1840 119° Southeast 538 619 21,900 -60 Descending FlightAware
16:51 46.2060 -117.9960 119° Southeast 541 623 21,900  Level FlightAware
16:51 46.1870 -117.9470 119° Southeast 542 624 21,900 60 Level FlightAware
16:52 46.1000 -117.7840 128° Southeast 525 604 22,000  Climbing FlightAware
16:53 46.0640 -117.6750 115° Southeast 546 628 21,900 -120 Descending FlightAware
16:53 46.0270 -117.5560 114° Southeast 553 636 21,900  Level FlightAware
16:54 45.9950 -117.4530 114° Southeast 553 636 21,900  Level FlightAware
16:55 45.9310 -117.2440 114° Southeast 553 636 21,900  Level FlightAware
16:55 45.9090 -117.1730 114° Southeast 553 636 21,900  Level FlightAware
16:56 45.8660 -117.0360 114° Southeast 553 636 21,900  Level FlightAware
16:59 46.1400 -117.5250 309° West 498 573 21,900  Level FlightAware
17:00 46.1790 -117.6600 293° West 499 574 22,000 60 Climbing FlightAware
17:00 46.2120 -117.7660 294° West 508 585 22,000 -240 Level FlightAware
17:01 46.2410 -117.8690 292° West 502 578 21,800 60 Descending FlightAware
17:01 46.2760 -117.9840 294° West 505 581 22,100 240 Climbing FlightAware
17:02 46.3080 -118.0850 295° West 505 581 22,100 -120 Level FlightAware
17:03 46.3560 -118.2300 296° West 517 595 22,000 -60 Descending FlightAware
17:04 46.4200 -118.4250 296° West 508 585 22,000  Level FlightAware
17:04 46.4560 -118.5200 299° West 515 593 22,000  Level FlightAware
17:05 46.5400 -118.7210 301° West 506 582 22,000  Level FlightAware
17:06 46.5830 -118.8200 302° West 512 589 22,100 60 Climbing FlightAware
17:07 46.6340 -118.9360 303° West 517 595 22,100 -180 Level FlightAware
17:07 46.6810 -119.0460 302° West 521 600 21,900 -360 Descending FlightAware
17:08 46.7300 -119.1620 302° West 515 593 21,700 -180 Descending FlightAware
17:08 46.7700 -119.2610 301° West 508 585 21,700 60 Level FlightAware
17:09 46.8190 -119.3780 301° West 517 595 21,800 60 Climbing FlightAware
17:10 46.8520 -119.4570 301° West 498 573 21,800  Level FlightAware
17:10 46.8880 -119.5420 302° West 491 565 21,800 240 Level FlightAware
17:11 46.9360 -119.6140 314° West 494 568 22,100 360 Climbing FlightAware
17:11 46.9440 -119.6190 337° Northwest 496 571 22,100  Level FlightAware
17:12 47.0660 -119.5360 25° Northeast 550 633 22,100  Level FlightAware
17:12 47.0740 -119.5060 69° East 556 640 22,100 -120 Level FlightAware
17:13 46.9960 -119.3200 122° Southeast 576 663 22,000 -120 Descending FlightAware
17:13 46.9210 -119.2520 148° Southeast 583 671 22,000  Level FlightAware
17:14 46.7780 -119.1240 148° Southeast 586 674 22,000 -120 Level FlightAware
17:15 46.7090 -119.0630 149° Southeast 571 657 21,900 -300 Descending FlightAware
17:16 46.6180 -118.9890 151° Southeast 557 641 21,700 60 Descending FlightAware
17:16 46.5490 -118.9490 158° South 527 606 22,000 240 Climbing FlightAware
17:17 46.4760 -118.9070 158° South 525 604 22,000 -120 Level FlightAware
17:17 46.4070 -118.8540 152° Southeast 518 596 21,900 -120 Descending FlightAware
17:18 46.3290 -118.7740 145° Southeast 521 600 21,900 180 Level FlightAware
17:18 46.3100 -118.7160 115° Southeast 511 588 22,100 60 Climbing FlightAware
17:19 46.3410 -118.5600 74° East 497 572 22,000  Descending FlightAware
17:20 46.4040 -118.4790 42° Northeast 480 552 22,100  Climbing FlightAware
17:20 46.4390 -118.4650 15° North 473 544 22,000 -120 Descending FlightAware
17:21 46.5210 -118.5850 315° West 442 509 22,000  Level FlightAware
17:21 46.5490 -118.6670 296° West 461 531 22,000  Level FlightAware
17:22 46.5820 -118.7630 297° West 449 517 22,000  Level FlightAware
17:23 46.6160 -118.8610 297° West 440 506 22,000 360 Level FlightAware
17:23 46.6500 -118.9560 298° West 434 499 22,500 840 Climbing FlightAware
17:24 46.6780 -119.0340 298° West 415 478 23,000 420 Climbing FlightAware
17:24 46.7110 -119.1230 298° West 413 475 23,000  Level FlightAware
17:25 46.7590 -119.2570 298° West 417 480 23,000  Level FlightAware
17:26 46.8000 -119.3700 298° West 418 481 23,000 -720 Level FlightAware
17:27 46.8350 -119.4660 298° West 404 465 22,000 -900 Descending FlightAware
17:27 46.8600 -119.5330 299° West 406 467 22,000  Level FlightAware
17:28 46.9090 -119.6820 296° West 405 466 22,000  Level FlightAware
17:29 46.9340 -119.8400 283° West 407 468 22,000  Level FlightAware
17:30 46.9450 -119.9140 282° West 405 466 22,000  Level FlightAware
17:30 46.9600 -120.0140 282° West 405 466 22,000  Level FlightAware
17:31 46.9730 -120.1000 283° West 408 470 22,000  Level FlightAware
17:31 46.9890 -120.2100 282° West 407 468 22,000  Level FlightAware
17:32 47.0140 -120.3840 282° West 398 458 22,000  Level FlightAware
17:33 47.0280 -120.5240 278° West 405 466 22,000  Level FlightAware
17:34 47.0360 -120.6930 274° West 400 460 22,000  Level FlightAware
17:35 47.0440 -120.8460 274° West 403 464 22,000  Level FlightAware
17:36 47.0470 -120.9110 274° West 406 467 22,000  Level FlightAware
17:36 47.0520 -121.0070 274° West 405 466 22,000 -720 Level FlightAware
17:37 47.0560 -121.1080 273° West 402 463 21,200 -1,980 Descending FlightAware
17:38 47.0630 -121.2590 274° West 381 438 19,000 -1,800 Descending FlightAware
17:38 47.0660 -121.3280 274° West 356 410 18,700 -600 Descending FlightAware
17:39 47.0700 -121.4140 274° West 331 381 18,400 -660 Descending FlightAware
17:40 47.0880 -121.5450 281° West 312 359 17,600 -1,260 Descending FlightAware
17:41 47.1430 -121.6660 304° West 306 352 15,700 -1,620 Descending FlightAware
17:41 47.1570 -121.6970 304° West 306 352 15,300 -1,500 Descending FlightAware
17:42 47.1910 -121.7700 304° West 300 345 14,200 -1,320 Descending FlightAware
17:43 47.2330 -121.8630 304° West 265 305 13,100 -1,380 Descending FlightAware
17:44 47.2520 -121.9040 304° West 238 274 12,300 -1,920 Descending FlightAware
17:44 47.2680 -121.9400 303° West 225 259 11,300 -1,800 Descending FlightAware
17:45 47.3010 -122.0110 304° West 223 257 9,800 -1,140 Descending FlightAware
17:45 47.3150 -122.0430 303° West 220 253 9,800  Level FlightAware
17:46 47.3290 -122.0740 304° West 241 277 9,800  Level FlightAware
17:46 47.3540 -122.1300 303° West 260 299 9,800  Level FlightAware
17:47 47.3690 -122.1700 299° West 260 299 9,800  Level FlightAware
17:47 47.3830 -122.2140 295° West 257 296 9,800 -540 Level FlightAware
17:48 47.3980 -122.2570 297° West 253 291 9,300 -1,860 Descending FlightAware
17:49 47.4210 -122.3270 296° West 254 292 7,600 -2,400 Descending FlightAware
17:49 47.4330 -122.3560 301° West 255 293 6,800 -2,520 Descending FlightAware
17:49 47.4620 -122.3870 324° Northwest 261 300 5,500 -2,520 Descending FlightAware
17:50 47.4990 -122.4180 330° Northwest 256 295 4,000 -2,940 Descending FlightAware
17:51 47.5400 -122.4420 338° Northwest 245 282 1,900 -3,240 Descending FlightAware
17:51 47.5450 -122.4420 360° North 240 276 1,800 -300 Descending FlightAware
17:51 47.5840 -122.4310 11° North 194 223 1,700 -300 Descending FlightAware
17:52 47.6020 -122.4160 29° Northeast 185 213 1,500 -300 Descending FlightAware
17:52 47.6080 -122.3970 65° Northeast 178 205 1,500 -480 Level FlightAware
17:53 47.5900 -122.3560 123° Southeast 132 152 1,000 -660 Descending FlightAware
17:53 47.5740 -122.3400 146° Southeast 133 153 600 -720 Descending FlightAware
17:54 47.5670 -122.3340 150° Southeast 135 155 500 -180 Descending FlightAware
17:54 47.5560 -122.3240 148° Southeast 135 155 500 -300 Level FlightAware
17:55 47.5242 -122.2967 148° Southeast 132 152 100 -420 Descending Seattle Center
17:57 47.5167 -122.3000 270° West  Level FlightAware Approximate